Regional Weather Roundup
Issued by NWS Mobile, AL

Home | Current Version | Previous Version | Text Only | Print | Product List | Glossary On
Versions: 1 2 3 4 5 6 7 8 9 10 11 12 13 14 15 16 17 18 19 20 21 22 23 24 25 26 27 28 29 30 31 32 33 34 35 36 37 38 39 40 41 42 43 44 45 46 47 48 49 50
000
ASUS44 KMOB 290212
RWRMOB
REGIONAL WEATHER ROUNDUP
NATIONAL WEATHER SERVICE MOBILE AL
900 PM CDT TUE MAR 28 2017

NOTE: "FAIR" INDICATES FEW OR NO CLOUDS BELOW 12,000 FEET WITH NO
      SIGNIFICANT WEATHER AND/OR OBSTRUCTIONS TO VISIBILITY.

  * THESE STATIONS ARE PART OF THE UNIVERSITY OF SOUTH ALABAMA
    MESONET AND ARE NOT UNDER NWS OR FAA QUALITY CONTROL.

ALZ061>064-290300-
COASTAL ALABAMA

CITY           SKY/WX    TMP DP  RH WIND       PRES   REMARKS
MOBILE REG APT CLEAR     70  66  87 S5        30.00R
BROOKLEY FIELD CLEAR     72  69  90 S5        30.01R
USA CAMPUS*      N/A     70  66  88 CALM      30.00R
DOG RIVER*       N/A     70  68  94 S6        30.75R


CITY           SKY/WX    TMP DP  RH WIND       PRES   REMARKS
GULF SHORES    CLOUDY    71  71 100 S9        30.00R

$$

ALZ051>060-290300-
INTERIOR SOUTHWEST AND SOUTH CENTRAL ALABAMA

CITY           SKY/WX    TMP DP  RH WIND       PRES   REMARKS
GREENVILLE     CLEAR     74  61  63 SW5       29.98R
EVERGREEN      CLEAR     72  62  71 S7        29.99R
ATMORE*          N/A     70  63  78 S8        30.02
ANDALUSIA/OPP  CLEAR     74  61  63 S5        29.99R
ANDALUSIA*       N/A     72  63  73 SW6       30.00R
FLORALA APT    CLEAR     70  65  84 SW10      30.02R
FLORALA*         N/A     70  66  88 CALM      30.72R

$$

FLZ001>006-290300-
WESTERN FLORIDA PANHANDLE

CITY           SKY/WX    TMP DP  RH WIND       PRES   REMARKS
PENSACOLA      MOCLDY    73  68  84 SW12      30.01R
NAS PENSACOLA  MOCLDY    71  68  90 SW7       30.00R
MILTON         CLEAR     69  67  93 S6        30.01R
WHTNG S FIELD  PTCLDY    72  69  90 S5        30.01R


CITY           SKY/WX    TMP DP  RH WIND       PRES   REMARKS
JAY*             N/A     70  63  78 S9        30.01
DUKE FIELD     PTCLDY    68  66  93 S5        30.00R
CRESTVIEW      CLEAR     69  65  86 S3        30.02R
VALPARAISO     PTCLDY    71  69  92 S6        30.01R
DESTIN         MOCLDY    74  73  97 S3        30.01R

$$

MSZ076-079-290300-
INTERIOR SOUTHEAST MISSISSIPPI

CITY           SKY/WX    TMP DP  RH WIND       PRES   REMARKS
LEAKESVILLE*     N/A     72  64  78 S5        29.98R
AGRICOLA*        N/A     68  66  94 CALM      29.99R

$$

MARINE OBSERVATIONS

STATION/POSITION TIME  TEMP    WIND        PRES    WAVE
                       AIR SEA DIR/SP/G            HT/PER
                 (UTC) (F)     (DEG/KT/KT) (MB)    (FT/S)
PASCAGOULA       0142   74     190/ 11/ 13 1015.3R
PETIT BOIS ISLND 0142   73     180/ 13/ 15 1016.2R
GRAND BAY        0045   74     190/ 10     1016.0S
KATRINA CUT      0100          190/ 11     1015.2
CEDAR POINT      0130   73     190/ 12     1015.6R
E DAUPHIN ISLAND 0100   73     170/ 10/ 12 1014.9R
MIDDLE BAY LIGHT 0100   73     180/ 12     1015.9
USCG MOBILE BAY  0142   71 75  200/  3/  6 1016.3R
STATE DOCKS      0142   72 68              1015.6R
MEAHER PARK      0130   73     170/ 10     1015.9R
WEEKS BAY        0045   73                   N/A
FORT MORGAN      0142   73     190/ 14/ 16   N/A
12 S ORANGE BCH  0050   72 72  180/ 10/ 12 1015.1S   2/ 6
PENSACOLA BAY    0142   73 76  210/  7/ 10 1016.2R
64 S DAUPHIN ISL 0150   73 74  170/ 14/ 16 1016.0R   3/ 6
67 S FORT MORGAN 0130   72     180/ 14     1016.3R

$$

SELECTED LOCATIONS ACROSS THE REGION

CITY           SKY/WX    TMP DP  RH WIND       PRES   REMARKS
NEW ORLEANS    PTCLDY    73  67  81 SE9       29.95S
GULFPORT       PTCLDY    74  69  85 S10       29.97R
PASCAGOULA AP  CLEAR     72  66  81 S5        29.99R
PASCAGOULA*    NOT AVBL
HATTIESBURG    CLEAR     73  62  68 S7        29.97R
LAUREL         CLEAR     72  61  68 S8        29.96S
MERIDIAN       CLEAR     69  67  93 CALM      29.95R
JACKSON        CLEAR     69  64  84 SE3       29.90S
MONTGOMERY     CLEAR     72  62  71 CALM      29.97R
TROY           PTCLDY    72  63  73 S3        29.99R
ASHFORD*         N/A     72  63  73 SW6       30.00R
DOTHAN         CLEAR     73  63  70 SW10      30.03R
PANAMA CITY    MOCLDY    70  67  90 S5        30.00R

$$




USA.gov is the U.S. government's official web portal to all federal, state and local government web resources and services.